Home   Weather   Stellenbosch   Past weeks
Flag for South Africa

Past Weather in Stellenbosch, South Africa — Yesterday and Last 2 Weeks

Now
64 °F

Broken clouds.


Feels Like: 64 °F
Forecast: 69 / 52 °F
Wind: 16 mph from Northwest

Location: Cape Town International Airport

Current Time: Oct 23, 2019 at 4:38:06 pm

Latest Report: Oct 23, 2019 at 3:00 pm


Visibility: N/A

Pressure: 29.89 "Hg

Humidity: 64%

Dew Point: 52 °F

Location of StellenboschLocation

Past Weather in Stellenbosch — Graph

°F

Stellenbosch Temperature Yesterday

Maximum temperature yesterday: 72 °F (at 2:00 pm)
Minimum temperature yesterday: 43 °F (at 6:00 am)
Average temperature yesterday: 62 °F

High & Low Weather Summary for the Past Weeks

 TemperatureHumidityPressure
High81 °F (Oct 13, 1:00 pm)100% (Oct 14, 6:28 am)30.39 "Hg (Oct 14, 6:28 am)
Low43 °F (Oct 22, 6:00 am)32% (Oct 13, 11:00 am)29.80 "Hg (Oct 22, 3:00 pm)
Average63 °F70%30.05 "Hg
* Reported Oct 8 3:00 pm — Oct 23 3:00 pm, Stellenbosch. Weather by CustomWeather, © 2019

Note: Actual official high and low records may vary slightly from our data, if they occured in-between our weather recording intervals... More about our weather records

Advertising

Stellenbosch Weather History for the Previous 24 Hours

Scroll right to see more
 ConditionsComfort  
Time TempWeatherWind HumidityBarometerVisibility
3:00 pm
Wed, Oct 23
64 °FBroken clouds.16 mph64%29.89 "HgN/A
2:00 pm63 °FBroken clouds.16 mph68%29.92 "HgN/A
1:00 pm63 °FBroken clouds.21 mph68%29.92 "HgN/A
12:00 pm64 °FBroken clouds.16 mph64%29.92 "HgN/A
11:27 am63 °FBroken clouds.16 mph73%29.92 "HgN/A
11:00 am59 °FPartly sunny.14 mph82%29.95 "HgN/A
10:00 am59 °FPartly sunny.18 mph77%29.92 "HgN/A
9:00 am59 °FPartly sunny.16 mph68%29.92 "HgN/A
8:00 am57 °FPartly sunny.7 mph67%29.92 "HgN/A
7:00 am57 °FPartly sunny.10 mph67%29.89 "HgN/A
6:29 am57 °FPartly sunny.9 mph67%29.89 "HgN/A
6:00 am52 °FPartly sunny.7 mph82%29.89 "HgN/A
5:00 am52 °FPassing clouds.9 mph77%29.89 "HgN/A
4:00 am54 °FPassing clouds.6 mph72%29.89 "HgN/A
3:00 am54 °FPassing clouds.3 mph72%29.89 "HgN/A
2:00 am57 °FPassing clouds.5 mph63%29.89 "HgN/A
1:00 am57 °FPassing clouds.8 mph67%29.89 "HgN/A
12:00 am59 °FPassing clouds.7 mph68%29.89 "HgN/A
11:00 pm
Tue, Oct 22
59 °FPassing clouds.10 mph72%29.86 "HgN/A
10:00 pm59 °FPassing clouds.13 mph72%29.86 "HgN/A
9:00 pm61 °FPassing clouds.15 mph68%29.86 "HgN/A
8:00 pm61 °FPassing clouds.17 mph72%29.83 "HgN/A
7:00 pm61 °FPassing clouds.18 mph72%29.80 "HgN/A
6:00 pm66 °FPassing clouds.15 mph52%29.80 "HgN/A
5:00 pm68 °FPassing clouds.13 mph46%29.80 "HgN/A
4:00 pm68 °FPassing clouds.13 mph46%29.80 "HgN/A
Weather by CustomWeather, © 2019

See weather overview